SAS115 ENBR-BIKF

Flight info

Callsign SAS115
Flight time 2h 12m
Altitude 38000
Route REKLI DCT VALDI/M078F380 DCT ING DCT NASBU NASBU5N
Aircraft A20N/M-SDE2E3FGHIRWXY/LB1

Departure

Time 2026-05-06 13:53
Airport Bergen Airport, Flesland (ENBR)

Arrival

Time 2026-05-06 16:05
Airport Keflavik International Airport (BIKF)
Time Latitude Longitude Altitude Speed Heading
2026-05-06 13:14 60.28891 5.22539 162 ft 0 kts 102°
2026-05-06 13:43 60.28894 5.22507 162 ft 1 kts 94°
2026-05-06 13:43 60.28894 5.22485 162 ft 2 kts 76°
2026-05-06 13:44 60.28889 5.22453 162 ft 2 kts 67°
2026-05-06 13:44 60.28880 5.22424 161 ft 2 kts 33°
2026-05-06 13:44 60.28873 5.22416 161 ft 0 kts 18°
2026-05-06 13:46 60.28876 5.22417 161 ft 1 kts 18°
2026-05-06 13:46 60.28887 5.22420 162 ft 1 kts 354°
2026-05-06 13:46 60.28905 5.22412 162 ft 7 kts 347°
2026-05-06 13:46 60.29003 5.22374 163 ft 21 kts 351°
2026-05-06 13:47 60.29151 5.22322 164 ft 22 kts 349°
2026-05-06 13:47 60.29305 5.22270 165 ft 23 kts 349°
2026-05-06 13:47 60.29465 5.22213 167 ft 24 kts 350°
2026-05-06 13:47 60.29626 5.22161 168 ft 22 kts 350°
2026-05-06 13:48 60.29724 5.22080 169 ft 12 kts 291°
2026-05-06 13:48 60.29797 5.21983 169 ft 15 kts 349°
2026-05-06 13:48 60.29905 5.21948 170 ft 16 kts 350°
2026-05-06 13:48 60.30021 5.21908 171 ft 18 kts 350°
2026-05-06 13:49 60.30146 5.21866 173 ft 19 kts 351°
2026-05-06 13:49 60.30279 5.21821 174 ft 20 kts 351°
2026-05-06 13:49 60.30420 5.21775 175 ft 21 kts 351°
2026-05-06 13:49 60.30567 5.21726 176 ft 22 kts 349°
2026-05-06 13:50 60.30662 5.21577 177 ft 17 kts 266°
2026-05-06 13:50 60.30604 5.21396 179 ft 16 kts 178°
2026-05-06 13:50 60.30547 5.21416 177 ft 0 kts 172°
2026-05-06 13:50 60.30530 5.21421 176 ft 5 kts 172°
2026-05-06 13:51 60.30479 5.21437 175 ft 10 kts 171°
2026-05-06 13:51 60.30469 5.21440 174 ft 2 kts 171°
2026-05-06 13:51 60.30418 5.21456 174 ft 26 kts 171°
2026-05-06 13:51 60.30039 5.21580 173 ft 83 kts 170°
2026-05-06 13:52 60.29314 5.21824 165 ft 126 kts 169°
2026-05-06 13:52 60.28342 5.22102 204 ft 152 kts 177°
2026-05-06 13:52 60.27237 5.22401 258 ft 174 kts 174°
2026-05-06 13:52 60.25960 5.22829 309 ft 190 kts 174°
2026-05-06 13:53 60.24709 5.23190 982 ft 179 kts 174°
2026-05-06 13:53 60.23359 5.23633 1003 ft 217 kts 173°
2026-05-06 13:53 60.21742 5.24207 1035 ft 254 kts 172°
2026-05-06 13:53 60.19968 5.24846 1815 ft 258 kts 172°
2026-05-06 13:54 60.18211 5.25472 2784 ft 257 kts 172°
2026-05-06 13:54 60.16435 5.26088 3617 ft 260 kts 172°
2026-05-06 13:54 60.14637 5.26705 4430 ft 263 kts 172°
2026-05-06 13:54 60.12818 5.27240 5243 ft 265 kts 181°
2026-05-06 13:55 60.11038 5.26547 6047 ft 261 kts 208°
2026-05-06 13:55 60.09612 5.24380 6794 ft 259 kts 233°
2026-05-06 13:55 60.08794 5.21189 7529 ft 260 kts 258°
2026-05-06 13:55 60.08495 5.17585 8294 ft 264 kts 265°
2026-05-06 13:56 60.08704 5.13954 9111 ft 266 kts 290°
2026-05-06 13:56 60.09690 5.10820 9897 ft 271 kts 315°
2026-05-06 13:56 60.11295 5.08791 10541 ft 280 kts 339°
2026-05-06 13:56 60.13236 5.07773 10880 ft 296 kts 344°
2026-05-06 13:57 60.15299 5.06802 11145 ft 313 kts 344°
2026-05-06 13:57 60.17469 5.05794 11440 ft 327 kts 344°
2026-05-06 13:57 60.19703 5.04757 12004 ft 331 kts 344°
2026-05-06 13:57 60.21954 5.03703 12674 ft 333 kts 343°
2026-05-06 13:58 60.24133 5.02357 13348 ft 330 kts 332°
2026-05-06 13:58 60.26121 4.99985 13991 ft 327 kts 318°
2026-05-06 13:58 60.27732 4.96800 14562 ft 323 kts 305°
2026-05-06 13:58 60.28912 4.93040 15152 ft 321 kts 292°
2026-05-06 13:59 60.29708 4.88794 15732 ft 320 kts 287°
2026-05-06 13:59 60.30428 4.84555 16332 ft 320 kts 287°
2026-05-06 13:59 60.31140 4.80371 16949 ft 319 kts 286°
2026-05-06 13:59 60.31858 4.76139 17588 ft 319 kts 286°
2026-05-06 14:00 60.32572 4.71912 18233 ft 318 kts 285°
2026-05-06 14:00 60.33288 4.67673 18820 ft 318 kts 285°
2026-05-06 14:00 60.34005 4.63441 19377 ft 319 kts 285°
2026-05-06 14:00 60.34720 4.59211 19918 ft 320 kts 285°
2026-05-06 14:01 60.35437 4.54951 20455 ft 321 kts 285°
2026-05-06 14:01 60.36153 4.50670 20975 ft 322 kts 285°
2026-05-06 14:01 60.36868 4.46374 21489 ft 323 kts 284°
2026-05-06 14:01 60.37583 4.42054 21982 ft 325 kts 284°
2026-05-06 14:02 60.38297 4.37715 22458 ft 326 kts 284°
2026-05-06 14:02 60.39016 4.33352 22921 ft 328 kts 284°
2026-05-06 14:02 60.39741 4.28976 23373 ft 329 kts 284°
2026-05-06 14:02 60.40469 4.24569 23779 ft 331 kts 284°
2026-05-06 14:03 60.41197 4.20144 24139 ft 333 kts 284°
2026-05-06 14:03 60.41929 4.15687 24445 ft 335 kts 284°
2026-05-06 14:03 60.42670 4.11186 24756 ft 338 kts 284°
2026-05-06 14:03 60.43412 4.06656 25063 ft 341 kts 284°
2026-05-06 14:04 60.44145 4.02076 25374 ft 343 kts 283°
2026-05-06 14:04 60.44872 3.97449 25674 ft 345 kts 283°
2026-05-06 14:04 60.45593 3.92855 25982 ft 348 kts 283°
2026-05-06 14:04 60.46327 3.88171 26297 ft 349 kts 283°
2026-05-06 14:05 60.47062 3.83466 26611 ft 351 kts 283°
2026-05-06 14:05 60.47801 3.78732 26931 ft 353 kts 283°
2026-05-06 14:05 60.48541 3.73981 27251 ft 354 kts 283°
2026-05-06 14:05 60.49285 3.69202 27574 ft 355 kts 283°
2026-05-06 14:06 60.50030 3.64412 27901 ft 356 kts 283°
2026-05-06 14:06 60.50776 3.59600 28247 ft 358 kts 283°
2026-05-06 14:06 60.51521 3.54782 28581 ft 358 kts 283°
2026-05-06 14:06 60.52233 3.49937 28928 ft 358 kts 282°
2026-05-06 14:07 60.52961 3.45100 29305 ft 360 kts 286°
2026-05-06 14:07 60.54095 3.40570 30002 ft 357 kts 294°
2026-05-06 14:07 60.55313 3.36267 30635 ft 346 kts 293°
2026-05-06 14:07 60.56468 3.32057 31300 ft 336 kts 293°
2026-05-06 14:08 60.57584 3.27943 31847 ft 328 kts 293°
2026-05-06 14:08 60.58679 3.23864 32118 ft 329 kts 293°
2026-05-06 14:08 60.59772 3.19751 32259 ft 332 kts 293°
2026-05-06 14:08 60.60870 3.15586 32385 ft 335 kts 293°
2026-05-06 14:09 60.61969 3.11380 32550 ft 337 kts 293°
2026-05-06 14:09 60.63069 3.07139 32720 ft 339 kts 293°
2026-05-06 14:09 60.64169 3.02868 32873 ft 341 kts 293°
2026-05-06 14:09 60.65255 2.98620 33032 ft 343 kts 292°
2026-05-06 14:10 60.66275 2.94158 33187 ft 344 kts 289°
2026-05-06 14:10 60.67177 2.89694 33326 ft 345 kts 288°
2026-05-06 14:10 60.68049 2.85116 33476 ft 347 kts 287°
2026-05-06 14:10 60.68919 2.80514 33621 ft 349 kts 288°
2026-05-06 14:11 60.69804 2.75893 33777 ft 351 kts 288°
2026-05-06 14:11 60.70710 2.71258 33911 ft 353 kts 289°
2026-05-06 14:11 60.71635 2.66602 34043 ft 354 kts 289°
2026-05-06 14:11 60.72569 2.61933 34160 ft 356 kts 289°
2026-05-06 14:12 60.73509 2.57241 34272 ft 358 kts 289°
2026-05-06 14:12 60.74452 2.52519 34388 ft 359 kts 289°
2026-05-06 14:12 60.75391 2.47785 34501 ft 360 kts 289°
2026-05-06 14:12 60.76329 2.43028 34615 ft 361 kts 289°
2026-05-06 14:13 60.77269 2.38246 34732 ft 363 kts 289°
2026-05-06 14:13 60.78212 2.33455 34862 ft 363 kts 289°
2026-05-06 14:13 60.79153 2.28657 34987 ft 364 kts 289°
2026-05-06 14:13 60.80102 2.23814 35019 ft 368 kts 289°
2026-05-06 14:14 60.81695 2.15654 35024 ft 375 kts 289°
2026-05-06 14:14 60.83651 2.05601 35023 ft 384 kts 289°
2026-05-06 14:15 60.85649 1.95292 35026 ft 393 kts 289°
2026-05-06 14:15 60.87668 1.84704 35025 ft 403 kts 289°
2026-05-06 14:16 60.89738 1.73839 35027 ft 411 kts 289°
2026-05-06 14:16 60.91786 1.63108 35022 ft 402 kts 289°
2026-05-06 14:17 60.93809 1.52406 35110 ft 401 kts 289°
2026-05-06 14:17 60.94816 1.47047 35281 ft 402 kts 289°
2026-05-06 14:17 60.95825 1.41679 35449 ft 402 kts 289°
2026-05-06 14:18 60.96819 1.36381 35608 ft 402 kts 289°
2026-05-06 14:18 60.97825 1.30997 35767 ft 403 kts 289°
2026-05-06 14:18 60.98841 1.25547 35919 ft 403 kts 289°
2026-05-06 14:18 60.99843 1.20157 36093 ft 403 kts 289°
2026-05-06 14:19 61.00828 1.14832 36227 ft 403 kts 289°
2026-05-06 14:19 61.01826 1.09433 36375 ft 403 kts 289°
2026-05-06 14:19 61.02821 1.04022 36517 ft 404 kts 289°
2026-05-06 14:19 61.03814 0.98598 36653 ft 404 kts 289°
2026-05-06 14:20 61.04803 0.93175 36789 ft 404 kts 289°
2026-05-06 14:20 61.05793 0.87749 36916 ft 404 kts 289°
2026-05-06 14:20 61.06786 0.82317 37043 ft 404 kts 289°
2026-05-06 14:20 61.07780 0.76881 37178 ft 404 kts 289°
2026-05-06 14:21 61.08768 0.71449 37299 ft 404 kts 289°
2026-05-06 14:21 61.09752 0.66009 37425 ft 404 kts 289°
2026-05-06 14:21 61.10730 0.60573 37558 ft 403 kts 289°
2026-05-06 14:21 61.11706 0.55135 37687 ft 402 kts 289°
2026-05-06 14:22 61.12677 0.49707 37819 ft 401 kts 288°
2026-05-06 14:22 61.13639 0.44315 37979 ft 400 kts 288°
2026-05-06 14:22 61.15568 0.33456 38014 ft 403 kts 288°
2026-05-06 14:23 61.17493 0.22560 38015 ft 407 kts 288°
2026-05-06 14:23 61.19440 0.11467 38011 ft 411 kts 288°
2026-05-06 14:24 61.21402 0.00310 38010 ft 412 kts 291°
2026-05-06 14:24 61.23892 -0.10466 38012 ft 414 kts 294°
2026-05-06 14:25 61.26390 -0.21190 38010 ft 414 kts 294°
2026-05-06 14:25 61.28887 -0.32011 38009 ft 415 kts 294°
2026-05-06 14:26 61.31368 -0.42841 38005 ft 415 kts 294°
2026-05-06 14:26 61.33845 -0.53691 38007 ft 415 kts 294°
2026-05-06 14:27 61.36333 -0.64580 38005 ft 415 kts 294°
2026-05-06 14:27 61.38798 -0.75478 38008 ft 416 kts 293°
2026-05-06 14:28 61.41248 -0.86396 38007 ft 416 kts 294°
2026-05-06 14:28 61.43699 -0.97345 38010 ft 416 kts 293°
2026-05-06 14:29 61.46143 -1.08324 38009 ft 416 kts 293°
2026-05-06 14:29 61.48566 -1.19243 38014 ft 417 kts 293°
2026-05-06 14:30 61.50999 -1.30269 38020 ft 417 kts 293°
2026-05-06 14:30 61.53418 -1.41305 38017 ft 417 kts 293°
2026-05-06 14:31 61.55827 -1.52353 38020 ft 417 kts 293°
2026-05-06 14:31 61.58228 -1.63422 38020 ft 417 kts 293°
2026-05-06 14:32 61.60623 -1.74509 38018 ft 417 kts 293°
2026-05-06 14:32 61.63009 -1.85618 38019 ft 417 kts 293°
2026-05-06 14:33 61.65392 -1.96737 38019 ft 417 kts 293°
2026-05-06 14:33 61.67760 -2.07883 38026 ft 417 kts 292°
2026-05-06 14:34 61.70117 -2.19067 38023 ft 417 kts 292°
2026-05-06 14:34 61.72462 -2.30245 38023 ft 417 kts 292°
2026-05-06 14:35 61.74802 -2.41447 38031 ft 417 kts 292°
2026-05-06 14:35 61.77126 -2.52585 38024 ft 417 kts 292°
2026-05-06 14:36 61.79455 -2.63816 38030 ft 417 kts 292°
2026-05-06 14:36 61.81769 -2.75072 38038 ft 417 kts 292°
2026-05-06 14:37 61.84070 -2.86359 38028 ft 417 kts 292°
2026-05-06 14:37 61.86367 -2.97647 38034 ft 417 kts 292°
2026-05-06 14:38 61.88659 -3.08953 38031 ft 418 kts 292°
2026-05-06 14:38 61.90940 -3.20278 38039 ft 417 kts 292°
2026-05-06 14:39 61.93215 -3.31627 38035 ft 418 kts 292°
2026-05-06 14:39 61.95474 -3.43014 38043 ft 418 kts 291°
2026-05-06 14:40 61.97722 -3.54406 38041 ft 418 kts 291°
2026-05-06 14:40 61.99969 -3.65823 38043 ft 418 kts 291°
2026-05-06 14:41 62.02211 -3.77252 38044 ft 418 kts 291°
2026-05-06 14:41 62.04443 -3.88723 38046 ft 419 kts 291°
2026-05-06 14:42 62.06647 -4.00125 38049 ft 419 kts 291°
2026-05-06 14:42 62.08850 -4.11628 38043 ft 419 kts 291°
2026-05-06 14:43 62.11052 -4.23150 38048 ft 419 kts 291°
2026-05-06 14:43 62.13249 -4.34703 38050 ft 419 kts 291°
2026-05-06 14:44 62.15435 -4.46267 38055 ft 420 kts 291°
2026-05-06 14:45 62.18703 -4.63662 38056 ft 420 kts 291°
2026-05-06 14:45 62.20865 -4.75276 38051 ft 420 kts 291°
2026-05-06 14:46 62.23019 -4.86921 38052 ft 420 kts 291°
2026-05-06 14:46 62.25165 -4.98595 38054 ft 421 kts 290°
2026-05-06 14:47 62.27302 -5.10281 38059 ft 421 kts 290°
2026-05-06 14:47 62.29430 -5.21999 38053 ft 421 kts 290°
2026-05-06 14:48 62.31540 -5.33670 38064 ft 421 kts 290°
2026-05-06 14:48 62.33655 -5.45435 38056 ft 422 kts 290°
2026-05-06 14:49 62.35767 -5.57225 38054 ft 422 kts 290°
2026-05-06 14:49 62.37860 -5.69040 38062 ft 422 kts 290°
2026-05-06 14:50 62.39947 -5.80898 38061 ft 423 kts 290°
2026-05-06 14:50 62.42035 -5.92798 38074 ft 423 kts 290°
2026-05-06 14:51 62.44109 -6.04705 38065 ft 423 kts 290°
2026-05-06 14:51 62.46151 -6.16554 38070 ft 424 kts 290°
2026-05-06 14:52 62.48206 -6.28503 38071 ft 424 kts 290°
2026-05-06 14:52 62.50259 -6.40477 38076 ft 424 kts 289°
2026-05-06 14:53 62.52294 -6.52488 38072 ft 424 kts 289°
2026-05-06 14:53 62.54314 -6.64507 38071 ft 425 kts 289°
2026-05-06 14:54 62.56324 -6.76484 38070 ft 425 kts 289°
2026-05-06 14:54 62.58333 -6.88544 38083 ft 425 kts 289°
2026-05-06 14:55 62.60329 -7.00641 38074 ft 425 kts 289°
2026-05-06 14:55 62.62319 -7.12732 38078 ft 425 kts 289°
2026-05-06 14:56 62.63191 -7.18042 38078 ft 425 kts 289°
2026-05-06 14:56 62.63321 -7.18840 38077 ft 426 kts 289°
2026-05-06 14:57 62.65187 -7.30308 38085 ft 430 kts 289°
2026-05-06 14:57 62.67189 -7.42670 38056 ft 435 kts 289°
2026-05-06 14:58 62.69193 -7.55176 38076 ft 439 kts 289°
2026-05-06 14:58 62.70867 -7.65654 38061 ft 442 kts 289°
2026-05-06 14:59 62.73218 -7.80442 38069 ft 445 kts 289°
2026-05-06 14:59 62.74892 -7.91107 38089 ft 447 kts 288°
2026-05-06 15:00 62.76904 -8.04006 38074 ft 449 kts 288°
2026-05-06 15:00 62.78893 -8.16809 38097 ft 433 kts 288°
2026-05-06 15:00 62.79839 -8.22945 38087 ft 421 kts 288°
2026-05-06 15:01 62.80762 -8.28964 38077 ft 418 kts 288°
2026-05-06 15:01 62.82615 -8.41125 38077 ft 423 kts 288°
2026-05-06 15:02 62.84477 -8.53415 38095 ft 426 kts 288°
2026-05-06 15:02 62.86342 -8.65742 38081 ft 426 kts 288°
2026-05-06 15:03 62.88184 -8.78001 38094 ft 426 kts 288°
2026-05-06 15:03 62.90023 -8.90375 38104 ft 427 kts 288°
2026-05-06 15:04 62.91862 -9.02787 38106 ft 427 kts 288°
2026-05-06 15:04 62.93678 -9.15207 38104 ft 427 kts 287°
2026-05-06 15:05 62.95486 -9.27646 38114 ft 428 kts 287°
2026-05-06 15:05 62.97289 -9.40109 38109 ft 428 kts 287°
2026-05-06 15:06 62.98430 -9.48023 38114 ft 428 kts 287°
2026-05-06 15:06 62.99783 -9.57462 38112 ft 428 kts 287°
2026-05-06 15:07 63.01554 -9.69931 38115 ft 428 kts 287°
2026-05-06 15:07 63.03318 -9.82464 38121 ft 428 kts 287°
2026-05-06 15:08 63.05073 -9.95045 38120 ft 428 kts 287°
2026-05-06 15:08 63.06820 -10.07602 38119 ft 428 kts 287°
2026-05-06 15:09 63.08542 -10.20117 38120 ft 429 kts 287°
2026-05-06 15:09 63.10267 -10.32721 38120 ft 429 kts 287°
2026-05-06 15:10 63.11979 -10.45356 38130 ft 429 kts 287°
2026-05-06 15:10 63.13684 -10.58000 38125 ft 430 kts 286°
2026-05-06 15:11 63.15374 -10.70685 38132 ft 429 kts 286°
2026-05-06 15:11 63.17048 -10.83285 38137 ft 428 kts 286°
2026-05-06 15:12 63.18721 -10.95971 38134 ft 428 kts 286°
2026-05-06 15:12 63.20378 -11.08646 38137 ft 428 kts 286°
2026-05-06 15:13 63.22019 -11.21339 38136 ft 428 kts 286°
2026-05-06 15:13 63.23645 -11.34031 38141 ft 428 kts 286°
2026-05-06 15:14 63.25259 -11.46673 38137 ft 428 kts 286°
2026-05-06 15:14 63.26862 -11.59380 38145 ft 427 kts 285°
2026-05-06 15:15 63.28452 -11.72093 38146 ft 427 kts 285°
2026-05-06 15:15 63.30034 -11.84847 38145 ft 427 kts 285°
2026-05-06 15:16 63.31612 -11.97584 38146 ft 427 kts 285°
2026-05-06 15:16 63.33162 -12.10240 38150 ft 426 kts 285°
2026-05-06 15:17 63.34699 -12.22993 38143 ft 427 kts 285°
2026-05-06 15:17 63.36227 -12.35756 38146 ft 427 kts 285°
2026-05-06 15:18 63.37753 -12.48554 38149 ft 426 kts 285°
2026-05-06 15:18 63.39271 -12.61329 38147 ft 426 kts 285°
2026-05-06 15:19 63.40775 -12.74117 38151 ft 427 kts 285°
2026-05-06 15:19 63.42260 -12.86932 38154 ft 426 kts 285°
2026-05-06 15:20 63.43727 -12.99781 38157 ft 427 kts 285°
2026-05-06 15:20 63.45184 -13.12577 38155 ft 427 kts 285°
2026-05-06 15:21 63.46649 -13.25442 38161 ft 426 kts 284°
2026-05-06 15:21 63.48097 -13.38324 38156 ft 428 kts 284°
2026-05-06 15:22 63.49534 -13.51235 38164 ft 427 kts 284°
2026-05-06 15:22 63.50950 -13.64172 38163 ft 427 kts 284°
2026-05-06 15:23 63.52355 -13.77109 38162 ft 428 kts 284°
2026-05-06 15:23 63.53747 -13.90071 38169 ft 428 kts 284°
2026-05-06 15:24 63.55135 -14.03056 38167 ft 428 kts 284°
2026-05-06 15:24 63.56517 -14.16049 38170 ft 428 kts 284°
2026-05-06 15:25 63.57887 -14.29061 38171 ft 428 kts 284°
2026-05-06 15:25 63.59251 -14.42088 38170 ft 429 kts 284°
2026-05-06 15:26 63.60589 -14.55104 38177 ft 428 kts 283°
2026-05-06 15:26 63.61912 -14.68162 38181 ft 428 kts 283°
2026-05-06 15:27 63.63232 -14.81209 38179 ft 428 kts 283°
2026-05-06 15:27 63.64537 -14.94301 38181 ft 428 kts 283°
2026-05-06 15:28 63.65827 -15.07311 38186 ft 429 kts 283°
2026-05-06 15:28 63.67114 -15.20415 38188 ft 428 kts 283°
2026-05-06 15:29 63.68388 -15.33524 38186 ft 428 kts 283°
2026-05-06 15:29 63.69649 -15.46648 38175 ft 429 kts 283°
2026-05-06 15:30 63.70898 -15.59794 38183 ft 428 kts 283°
2026-05-06 15:30 63.72137 -15.72943 38185 ft 428 kts 283°
2026-05-06 15:31 63.73354 -15.86109 38185 ft 429 kts 283°
2026-05-06 15:31 63.74571 -15.99294 38181 ft 429 kts 283°
2026-05-06 15:32 63.76366 -16.19066 38186 ft 429 kts 283°
2026-05-06 15:32 63.77546 -16.32273 38187 ft 428 kts 282°
2026-05-06 15:33 63.78719 -16.45492 38184 ft 429 kts 282°
2026-05-06 15:33 63.79869 -16.58661 38184 ft 429 kts 282°
2026-05-06 15:34 63.80856 -16.71977 38186 ft 429 kts 279°
2026-05-06 15:34 63.81517 -16.85426 38186 ft 430 kts 277°
2026-05-06 15:35 63.82093 -16.98886 37982 ft 430 kts 277°
2026-05-06 15:35 63.82398 -17.05631 37419 ft 431 kts 277°
2026-05-06 15:35 63.82717 -17.12386 36785 ft 432 kts 278°
2026-05-06 15:36 63.83046 -17.19154 36150 ft 433 kts 278°
2026-05-06 15:36 63.83379 -17.25939 35558 ft 434 kts 278°
2026-05-06 15:36 63.83709 -17.32710 35104 ft 431 kts 278°
2026-05-06 15:36 63.84032 -17.39431 34678 ft 427 kts 278°
2026-05-06 15:37 63.84343 -17.46101 34249 ft 424 kts 278°
2026-05-06 15:37 63.84647 -17.52730 33741 ft 421 kts 278°
2026-05-06 15:37 63.84942 -17.59309 33243 ft 418 kts 278°
2026-05-06 15:37 63.85231 -17.65834 32747 ft 415 kts 278°
2026-05-06 15:38 63.85516 -17.72281 32273 ft 412 kts 278°
2026-05-06 15:38 63.85800 -17.78758 31805 ft 409 kts 278°
2026-05-06 15:38 63.86077 -17.85143 31349 ft 406 kts 277°
2026-05-06 15:38 63.86353 -17.91506 30915 ft 404 kts 277°
2026-05-06 15:39 63.86623 -17.97808 30499 ft 401 kts 277°
2026-05-06 15:39 63.86890 -18.04103 30058 ft 398 kts 277°
2026-05-06 15:39 63.87150 -18.10331 29583 ft 396 kts 277°
2026-05-06 15:39 63.87404 -18.16535 29126 ft 393 kts 277°
2026-05-06 15:40 63.87653 -18.22692 28695 ft 390 kts 277°
2026-05-06 15:40 63.87896 -18.28807 28274 ft 388 kts 277°
2026-05-06 15:40 63.88134 -18.34892 27867 ft 386 kts 277°
2026-05-06 15:40 63.88367 -18.40861 27458 ft 384 kts 277°
2026-05-06 15:41 63.88602 -18.46953 27026 ft 381 kts 277°
2026-05-06 15:41 63.88832 -18.52937 26615 ft 379 kts 277°
2026-05-06 15:41 63.89062 -18.58879 26201 ft 377 kts 277°
2026-05-06 15:41 63.89286 -18.64726 25802 ft 375 kts 277°
2026-05-06 15:42 63.89508 -18.70601 25389 ft 373 kts 277°
2026-05-06 15:42 63.89723 -18.76461 24981 ft 371 kts 277°
2026-05-06 15:42 63.89936 -18.82279 24573 ft 369 kts 277°
2026-05-06 15:42 63.90148 -18.88076 24165 ft 367 kts 277°
2026-05-06 15:43 63.90355 -18.93841 23758 ft 365 kts 277°
2026-05-06 15:43 63.90559 -18.99579 23284 ft 364 kts 277°
2026-05-06 15:43 63.90756 -19.05281 22827 ft 361 kts 277°
2026-05-06 15:43 63.90949 -19.10957 22410 ft 359 kts 277°
2026-05-06 15:44 63.91141 -19.16591 21937 ft 357 kts 277°
2026-05-06 15:44 63.91331 -19.22220 21415 ft 357 kts 277°
2026-05-06 15:44 63.91519 -19.27871 20882 ft 358 kts 276°
2026-05-06 15:44 63.91703 -19.33516 20342 ft 359 kts 276°
2026-05-06 15:45 63.91884 -19.39185 19819 ft 359 kts 276°
2026-05-06 15:45 63.92064 -19.44852 19279 ft 360 kts 276°
2026-05-06 15:45 63.92184 -19.48619 18917 ft 361 kts 276°
2026-05-06 15:45 63.92321 -19.52929 18515 ft 362 kts 276°
2026-05-06 15:46 63.92346 -19.53703 18436 ft 362 kts 277°
2026-05-06 15:46 63.92470 -19.57575 18050 ft 366 kts 276°
2026-05-06 15:46 63.92668 -19.63597 17863 ft 396 kts 276°
2026-05-06 15:46 63.92881 -19.70042 17710 ft 423 kts 276°
2026-05-06 15:47 63.93105 -19.76902 17562 ft 446 kts 276°
2026-05-06 15:47 63.93331 -19.84085 17619 ft 460 kts 276°
2026-05-06 15:47 63.93552 -19.91133 18655 ft 433 kts 276°
2026-05-06 15:47 63.93745 -19.97726 19397 ft 408 kts 276°
2026-05-06 15:48 63.93922 -20.04098 19282 ft 398 kts 276°
2026-05-06 15:48 63.94086 -20.10263 19152 ft 384 kts 276°
2026-05-06 15:48 63.94237 -20.16217 19026 ft 371 kts 276°
2026-05-06 15:48 63.94380 -20.22021 18705 ft 364 kts 276°
2026-05-06 15:49 63.94522 -20.27749 18230 ft 363 kts 276°
2026-05-06 15:49 63.94664 -20.33494 17716 ft 363 kts 276°
2026-05-06 15:49 63.94802 -20.39246 17219 ft 364 kts 274°
2026-05-06 15:49 63.94486 -20.44898 16963 ft 370 kts 254°
2026-05-06 15:50 63.93662 -20.50530 16569 ft 370 kts 252°
2026-05-06 15:50 63.92858 -20.55978 16226 ft 365 kts 253°
2026-05-06 15:50 63.92163 -20.61412 16093 ft 352 kts 256°
2026-05-06 15:50 63.91591 -20.66709 15965 ft 339 kts 262°
2026-05-06 15:51 63.91292 -20.71904 15912 ft 327 kts 265°
2026-05-06 15:51 63.90998 -20.77065 15840 ft 330 kts 264°
2026-05-06 15:51 63.90696 -20.82255 15553 ft 331 kts 264°
2026-05-06 15:51 63.90396 -20.87424 15160 ft 329 kts 264°
2026-05-06 15:52 63.90098 -20.92584 14757 ft 328 kts 264°
2026-05-06 15:52 63.89802 -20.97706 14395 ft 326 kts 264°
2026-05-06 15:52 63.89506 -21.02794 14008 ft 325 kts 264°
2026-05-06 15:52 63.89191 -21.07874 13595 ft 323 kts 263°
2026-05-06 15:53 63.88848 -21.12907 13166 ft 322 kts 263°
2026-05-06 15:53 63.88482 -21.17941 12615 ft 325 kts 262°
2026-05-06 15:53 63.88095 -21.23020 12068 ft 327 kts 262°
2026-05-06 15:53 63.87696 -21.28124 11539 ft 329 kts 262°
2026-05-06 15:54 63.87292 -21.33234 11006 ft 330 kts 262°
2026-05-06 15:54 63.86883 -21.38351 10500 ft 330 kts 261°
2026-05-06 15:54 63.86468 -21.43477 9981 ft 330 kts 261°
2026-05-06 15:54 63.86055 -21.48586 9417 ft 330 kts 262°
2026-05-06 15:55 63.85644 -21.53690 8997 ft 326 kts 262°
2026-05-06 15:55 63.85248 -21.58574 8941 ft 311 kts 262°
2026-05-06 15:55 63.84860 -21.63321 8958 ft 295 kts 262°
2026-05-06 15:55 63.84500 -21.67715 8958 ft 280 kts 262°
2026-05-06 15:56 63.84155 -21.71935 8966 ft 265 kts 262°
2026-05-06 15:56 63.83828 -21.75937 8963 ft 252 kts 262°
2026-05-06 15:56 63.83508 -21.79883 8963 ft 256 kts 263°
2026-05-06 15:56 63.83188 -21.83850 8965 ft 256 kts 262°
2026-05-06 15:57 63.82864 -21.87808 8891 ft 255 kts 262°
2026-05-06 15:57 63.82538 -21.91748 8577 ft 255 kts 262°
2026-05-06 15:57 63.82207 -21.95700 8126 ft 259 kts 262°
2026-05-06 15:57 63.81866 -21.99763 7609 ft 266 kts 262°
2026-05-06 15:58 63.81519 -22.03890 7117 ft 271 kts 262°
2026-05-06 15:58 63.81161 -22.08173 6463 ft 283 kts 262°
2026-05-06 15:58 63.80625 -22.12561 5771 ft 294 kts 253°
2026-05-06 15:58 63.79950 -22.17007 5103 ft 303 kts 253°
2026-05-06 15:59 63.79259 -22.21565 4424 ft 310 kts 253°
2026-05-06 15:59 63.78555 -22.26223 3754 ft 316 kts 253°
2026-05-06 15:59 63.77838 -22.30954 3082 ft 320 kts 253°
2026-05-06 15:59 63.77208 -22.35787 2580 ft 317 kts 263°
2026-05-06 16:00 63.77070 -22.40604 2465 ft 298 kts 277°
2026-05-06 16:00 63.77387 -22.45056 2489 ft 276 kts 290°
2026-05-06 16:00 63.78044 -22.48963 2493 ft 256 kts 301°
2026-05-06 16:00 63.78946 -22.52266 2489 ft 238 kts 312°
2026-05-06 16:01 63.80001 -22.54941 2501 ft 218 kts 322°
2026-05-06 16:01 63.81128 -22.57007 2495 ft 199 kts 331°
2026-05-06 16:01 63.82290 -22.58544 2511 ft 193 kts 340°
2026-05-06 16:01 63.83525 -22.59654 2499 ft 189 kts 348°
2026-05-06 16:02 63.84792 -22.60324 2477 ft 187 kts 356°
2026-05-06 16:02 63.86067 -22.60552 2329 ft 180 kts
2026-05-06 16:02 63.87290 -22.60548 2106 ft 166 kts
2026-05-06 16:02 63.88340 -22.60554 1890 ft 141 kts
2026-05-06 16:03 63.89321 -22.60552 1695 ft 141 kts
2026-05-06 16:03 63.90296 -22.60550 1492 ft 140 kts
2026-05-06 16:03 63.91271 -22.60549 1296 ft 139 kts
2026-05-06 16:03 63.92237 -22.60548 1089 ft 139 kts
2026-05-06 16:04 63.93200 -22.60547 865 ft 138 kts
2026-05-06 16:04 63.94166 -22.60566 660 ft 139 kts
2026-05-06 16:04 63.95125 -22.60607 488 ft 137 kts
2026-05-06 16:04 63.96076 -22.60556 307 ft 136 kts
2026-05-06 16:05 63.97025 -22.60559 170 ft 136 kts
2026-05-06 16:05 63.97803 -22.60536 159 ft 69 kts
2026-05-06 16:05 63.98203 -22.60714 162 ft 45 kts 326°
2026-05-06 16:05 63.98271 -22.60812 162 ft 1 kts 329°
2026-05-06 16:06 63.98283 -22.60828 162 ft 1 kts 329°
2026-05-06 16:06 63.98284 -22.60830 162 ft 0 kts 329°
2026-05-06 16:06 63.98378 -22.60924 162 ft 26 kts 354°
2026-05-06 16:07 63.98595 -22.60945 163 ft 37 kts 359°
2026-05-06 16:07 63.98879 -22.60936 167 ft 42 kts
2026-05-06 16:07 63.99091 -22.60946 169 ft 25 kts
2026-05-06 16:07 63.99168 -22.61105 169 ft 16 kts 271°
2026-05-06 16:08 63.99172 -22.61427 167 ft 23 kts 271°
2026-05-06 16:08 63.99172 -22.61830 164 ft 27 kts 269°
2026-05-06 16:08 63.99175 -22.62291 159 ft 30 kts 277°
2026-05-06 16:08 63.99173 -22.62536 156 ft 0 kts 271°
2026-05-06 16:09 63.99175 -22.62612 155 ft 12 kts 284°
2026-05-06 16:09 63.99246 -22.62669 156 ft 8 kts 36°
2026-05-06 16:09 63.99258 -22.62645 156 ft 3 kts 49°